RH
57 57 57 58 58 57 56 57 56 58 59 59 61 62 64 67 68 70 73 75 78 77 77 77 77 79 78 81 84 89 92 94 97 97 101 100 96 96 96 97 98 96 93 96 96 91 85 81 83 80 72 70 69 66 61 53 45 34 30 28 22 16 16 25 24 17 15 14 13 13 12 12 13 12 9 7 9 17 40 78 102 82 52 47 66 87 84 78 72 58 42 26 19 20 33 38 45
53 53 54 54 54 54 53 53 53 54 55 56 58 58 59 62 63 65 68 68 69 71 72 72 73 74 74 76 77 79 80 82 85 85 87 87 87 88 89 91 90 89 87 84 80 76 73 70 68 61 54 60 61 51 43 36 31 28 26 22 16 14 17 23 20 15 14 15 16 13 12 13 16 15 10 8 8 21 44 79 99 72 50 54 69 84 77 71 60 44 31 17 18 25 33 48 58
50 50 50 50 50 50 49 50 50 50 51 52 54 52 54 57 58 59 61 62 63 65 65 65 65 65 67 70 72 72 73 75 76 76 76 76 77 77 78 77 75 75 76 71 63 58 58 57 57 53 48 48 43 36 33 30 28 25 20 16 15 18 18 17 15 15 15 17 20 16 13 15 20 17 11 10 12 32 53 83 94 63 51 61 74 80 71 64 48 31 20 13 21 28 47 74 82
45 46 46 47 46 46 45 45 45 46 46 47 49 47 50 53 53 56 56 57 58 59 59 59 58 59 60 60 63 63 64 66 67 69 68 68 69 70 69 68 67 66 67 65 58 55 53 47 46 45 42 38 33 32 29 27 25 19 16 14 14 18 17 13 16 18 16 21 25 19 15 19 23 17 13 13 18 39 61 84 89 61 55 68 81 78 66 59 41 26 14 14 23 32 71 101 96
39 40 40 41 40 41 41 41 41 41 41 43 44 43 47 49 48 52 52 53 54 54 55 54 53 54 53 52 53 53 54 54 55 57 57 58 60 61 60 60 60 58 59 58 53 54 51 42 39 37 36 36 31 29 26 23 19 15 15 14 13 15 13 14 22 22 18 25 31 25 24 28 24 19 21 20 20 41 67 84 85 72 70 77 83 75 65 54 36 24 13 17 26 38 84 105 97
34 34 35 35 34 35 35 35 35 35 36 37 39 40 43 44 45 47 48 50 50 51 51 51 51 50 49 49 48 47 47 47 47 47 47 48 48 48 48 50 49 49 49 47 44 43 41 36 36 35 36 34 27 24 21 17 15 15 14 13 14 13 13 18 26 23 20 30 37 38 42 37 25 29 35 32 27 40 67 80 79 77 84 86 78 70 63 49 32 23 15 22 27 39 86 104 96
29 29 29 30 29 30 30 30 30 31 32 33 34 35 37 38 41 42 44 46 47 48 47 48 48 47 46 45 44 44 44 44 43 43 42 41 41 40 41 42 39 39 40 38 37 35 35 34 33 31 29 25 21 19 16 16 15 14 13 14 13 13 16 18 23 24 30 39 44 55 61 48 37 43 47 45 41 50 70 81 82 77 87 93 74 65 59 47 33 22 17 23 24 36 85 103 94
26 26 25 25 25 26 26 26 27 27 28 29 30 31 32 33 35 37 39 41 42 44 44 44 44 44 44 42 41 41 42 41 40 39 38 37 36 36 36 37 34 33 33 32 31 30 30 29 28 25 22 18 17 16 15 15 13 14 14 13 13 14 16 17 21 28 44 55 58 71 76 63 49 47 51 57 57 65 78 86 95 88 91 91 73 64 57 50 36 23 18 22 22 34 83 103 96
23 23 23 23 23 24 24 24 24 25 25 26 27 27 28 29 30 32 34 35 37 38 39 40 41 41 40 40 39 39 40 38 38 36 35 35 33 33 32 32 30 29 28 26 25 24 23 22 21 19 17 16 15 15 15 15 14 14 13 13 13 13 16 18 21 28 49 71 76 78 79 71 63 63 72 81 75 75 85 91 100 96 94 84 73 67 57 54 39 22 17 24 24 31 82 105 99
22 22 22 22 22 23 23 23 23 23 23 24 24 25 25 26 27 28 30 31 32 33 34 35 36 37 36 36 36 36 37 35 35 33 33 32 30 30 28 27 26 24 22 20 19 18 18 17 17 16 16 16 15 15 14 14 14 13 12 13 13 13 17 17 19 25 42 74 90 86 85 86 89 93 95 100 91 84 92 99 98 94 92 79 72 72 62 55 36 24 22 28 27 32 80 104 101
21 21 21 22 22 22 22 22 22 21 22 23 23 23 24 24 25 26 27 28 29 29 30 31 32 32 32 32 32 33 33 31 31 29 29 27 26 25 23 23 21 20 19 17 17 16 17 16 16 16 16 15 15 15 14 15 13 13 12 12 13 14 17 17 21 26 45 81 99 98 98 99 104 103 100 106 96 87 93 94 93 91 88 76 75 74 61 45 29 28 27 30 27 34 79 103 101
22 22 21 22 22 22 22 22 22 21 22 23 22 22 22 22 23 23 24 24 25 26 26 27 27 28 28 28 28 29 28 27 26 25 24 22 22 21 20 20 18 18 17 17 17 16 16 15 16 15 16 16 15 15 14 14 12 13 13 13 14 15 17 22 25 32 61 94 102 101 102 99 102 103 99 98 85 80 89 90 92 90 81 73 72 62 46 31 27 31 29 31 27 38 85 104 99
22 22 22 22 22 22 22 22 22 22 23 22 22 22 22 22 22 22 22 23 23 23 23 24 24 24 24 24 24 24 24 23 22 22 21 21 20 19 19 18 18 17 16 17 16 16 16 16 18 16 16 16 15 15 16 16 16 20 20 17 15 17 21 22 27 43 77 103 102 100 103 100 100 102 94 81 71 75 88 94 91 83 71 65 59 44 31 24 25 30 28 31 25 41 90 105 97
23 23 23 23 23 23 23 23 22 22 23 22 22 22 22 22 22 22 22 22 22 22 22 22 22 22 22 22 22 21 21 21 20 20 19 19 19 18 18 17 18 17 17 17 16 17 15 17 18 15 15 15 15 15 17 21 26 30 24 19 16 18 20 20 35 54 71 89 99 102 101 103 102 100 92 75 68 77 90 96 89 77 65 55 45 30 22 20 21 26 28 32 25 45 94 104 98
24 24 24 24 24 23 23 23 22 23 22 22 23 22 22 22 22 22 22 21 21 21 21 21 21 21 20 20 20 20 20 20 19 19 19 18 18 18 18 18 18 17 17 17 17 17 16 17 16 15 15 14 14 18 29 32 31 32 24 22 20 20 22 21 34 44 40 41 65 97 101 101 105 98 88 75 73 85 93 97 88 71 56 44 32 20 17 18 20 26 29 31 26 50 98 104 97
25 25 25 25 24 24 24 23 23 23 22 22 23 22 22 22 22 22 21 21 21 21 21 20 20 20 20 20 20 20 19 19 19 19 19 18 18 18 18 18 18 18 17 17 17 16 16 16 14 15 15 13 13 24 41 32 22 32 29 23 24 23 21 19 23 27 27 22 37 83 104 99 101 96 80 72 83 97 96 95 82 58 44 34 22 15 17 19 23 28 27 31 33 59 100 102 99
26 26 26 26 25 25 24 24 24 23 23 24 23 23 23 23 22 22 22 22 21 21 21 21 21 20 20 20 20 20 20 20 20 19 19 19 19 18 19 18 18 18 17 17 17 16 15 14 13 14 12 12 12 16 27 22 21 37 31 23 27 24 21 24 24 21 25 26 31 62 96 103 98 85 63 66 92 100 94 88 70 48 38 28 19 17 19 20 25 28 24 31 41 68 101 100 101
27 27 26 26 26 26 25 25 25 24 24 25 24 24 24 23 23 23 23 22 22 22 22 22 22 21 21 21 21 21 20 20 20 20 20 19 19 19 19 18 18 17 17 17 15 15 14 13 13 12 12 11 11 11 16 23 29 34 31 31 32 23 22 26 32 46 49 41 38 42 67 92 91 65 39 61 92 90 90 85 61 44 36 28 23 19 20 23 28 28 23 30 41 70 102 100 102
26 26 26 27 26 26 26 26 26 25 25 25 24 24 24 24 23 23 23 23 23 22 22 22 22 22 22 21 21 21 20 21 20 20 20 19 19 19 18 18 18 17 16 16 14 15 13 13 13 11 13 11 12 12 11 18 20 20 24 28 26 20 25 37 60 87 80 55 45 37 42 60 58 37 32 67 93 89 94 82 53 41 35 30 25 18 19 23 27 28 22 27 37 67 101 101 101
25 25 25 25 25 25 25 25 25 25 25 24 24 24 23 23 23 23 23 23 23 22 22 22 22 21 21 21 21 21 20 20 20 20 19 19 19 18 18 17 17 16 15 15 14 14 13 13 13 12 13 12 14 13 13 15 14 16 17 19 19 20 35 63 87 96 84 62 49 41 35 35 33 36 58 89 100 98 99 79 51 39 33 27 19 13 15 19 22 24 20 25 34 61 98 103 99
22 23 23 23 23 24 24 23 23 23 23 23 23 23 23 23 23 22 22 22 22 22 22 22 21 21 21 21 20 20 20 20 19 19 19 18 18 17 17 16 16 15 15 14 13 13 13 13 13 13 14 14 15 15 16 16 18 20 19 25 25 28 54 81 89 91 97 83 57 40 29 35 54 71 90 102 101 100 95 75 54 40 30 20 12 8 9 13 18 20 18 22 31 54 90 106 100
20 20 20 21 21 21 21 21 22 22 22 22 22 22 22 22 22 22 22 22 21 21 22 21 21 21 21 20 20 20 19 19 19 19 18 17 17 16 16 16 16 15 14 14 13 13 13 13 13 15 15 17 18 18 21 19 22 23 22 33 35 47 80 95 89 92 103 86 52 36 37 62 89 98 101 101 100 98 91 76 58 42 25 15 9 5 5 7 13 18 19 19 26 46 78 103 103
17 18 18 18 18 19 19 20 20 20 20 20 21 21 21 21 21 21 21 21 21 21 21 21 20 20 20 20 19 19 19 19 19 18 17 17 17 16 16 16 15 15 15 14 14 14 14 15 15 17 18 20 22 22 24 24 25 26 26 31 37 58 91 100 92 94 101 77 40 35 60 90 100 101 102 101 100 97 96 90 68 41 23 17 10 3 4 4 6 14 19 18 19 36 69 96 100
16 16 17 17 17 18 18 19 19 19 20 19 20 21 20 21 21 21 21 20 21 21 21 20 20 20 20 20 19 19 19 19 19 18 18 17 17 17 16 16 16 17 17 17 18 18 18 19 19 21 22 23 26 25 27 28 27 28 28 35 44 58 86 97 92 101 97 56 28 46 81 100 98 98 101 101 101 100 101 92 68 45 31 23 14 5 3 3 3 8 15 18 14 20 55 92 100
16 17 17 18 18 19 19 19 20 20 20 20 21 21 21 22 22 22 21 22 22 22 22 21 21 21 21 21 21 21 21 20 20 19 19 19 19 19 19 19 20 21 22 24 24 25 25 26 26 26 27 27 28 28 29 30 29 29 28 43 58 64 86 96 95 105 84 49 49 72 93 99 101 100 96 98 100 103 99 80 57 40 33 26 17 13 6 2 2 3 8 15 15 11 28 72 101
19 20 20 20 20 20 21 21 22 22 22 23 23 23 24 24 24 24 23 25 26 24 24 23 23 24 24 23 23 23 23 22 21 21 21 22 23 25 27 28 29 30 31 33 33 33 32 32 32 32 32 31 31 31 31 31 30 30 26 33 44 52 75 92 104 95 62 71 93 91 98 100 101 100 95 99 100 100 94 78 59 45 57 56 31 19 12 5 2 1 3 8 16 15 13 39 84
24 24 24 24 24 24 25 25 26 26 26 27 27 27 28 27 28 27 27 31 30 28 28 28 28 27 27 26 26 26 25 25 25 26 26 28 31 33 38 41 42 42 41 42 41 40 39 37 36 35 35 33 33 32 31 32 29 29 28 26 26 29 40 61 92 73 34 75 110 97 101 100 96 98 97 102 101 100 91 80 70 64 90 86 41 24 20 11 5 2 2 4 12 18 16 19 52
29 29 29 29 29 30 31 31 33 33 33 35 33 34 34 35 35 30 35 40 35 33 33 33 32 31 31 30 30 30 29 31 32 34 36 38 42 46 51 53 52 50 48 47 45 43 42 40 38 36 36 34 33 33 30 31 29 27 26 25 25 23 24 32 53 47 24 62 104 101 100 99 100 101 98 99 99 102 97 91 86 83 100 90 50 30 23 17 11 8 7 6 12 18 21 18 28
36 37 37 37 38 39 39 40 42 41 42 44 42 42 43 44 41 36 46 49 40 40 40 37 36 34 34 34 36 38 39 42 44 47 50 50 53 56 59 58 56 53 51 49 46 44 42 40 39 36 36 35 33 32 30 29 28 27 25 24 24 22 23 22 22 32 35 53 92 106 99 100 104 101 100 99 99 102 99 100 99 92 100 100 76 41 19 18 14 12 15 14 16 18 21 23 20
45 46 46 48 50 49 48 50 52 51 53 56 54 53 55 54 49 47 57 56 47 47 44 41 41 38 42 46 50 55 57 59 60 61 59 56 58 61 61 59 55 53 50 47 44 42 40 38 38 36 35 35 33 31 29 29 27 26 26 24 25 23 22 23 16 26 36 39 74 103 100 100 101 101 103 99 101 101 97 103 100 91 95 103 99 67 29 16 14 14 16 17 20 21 21 25 25
57 59 59 60 62 56 57 65 65 63 66 68 66 68 70 59 54 61 66 67 63 60 58 57 60 61 66 71 74 77 76 74 71 67 64 60 61 62 60 56 53 50 47 45 43 40 39 37 36 35 34 34 32 31 29 28 28 26 26 24 24 25 22 24 20 19 23 23 55 94 101 101 100 101 103 98 101 102 99 104 98 93 98 100 103 94 61 27 15 14 12 15 19 21 23 24 29
69 75 71 68 74 64 68 84 78 72 80 80 77 84 82 59 65 88 84 84 89 84 84 84 87 91 91 93 93 91 86 80 75 69 65 62 62 61 56 53 50 48 46 44 43 40 38 36 35 34 33 34 32 32 30 28 28 26 27 26 24 26 24 24 23 21 20 17 40 78 93 101 101 99 102 99 101 103 102 103 96 92 99 102 100 101 92 58 28 18 13 14 17 19 23 24 28
85 90 84 81 90 75 78 102 92 81 91 93 86 93 91 62 74 111 101 95 105 100 100 99 100 103 100 100 98 92 87 81 75 69 66 63 60 58 53 50 48 46 46 44 43 40 37 35 34 33 32 33 33 32 32 29 29 28 27 27 26 27 27 25 25 23 22 18 26 45 63 90 103 99 100 100 99 102 101 99 96 95 99 103 100 99 101 88 60 35 19 13 14 18 21 25 27
97 99 98 97 104 90 83 104 103 91 97 103 96 99 103 77 80 113 106 97 104 101 102 102 102 104 100 98 92 84 81 76 72 67 64 61 57 55 51 49 47 46 45 43 42 40 38 36 33 33 32 33 33 32 33 31 30 28 27 28 28 29 29 28 27 24 24 21 21 22 33 71 101 100 99 101 99 100 100 98 97 100 101 99 100 101 99 101 89 67 52 34 17 16 20 24 29
100 101 102 100 104 101 88 91 104 103 99 105 104 102 106 92 88 108 107 98 102 102 103 104 103 102 100 93 81 77 75 69 66 63 60 57 54 53 50 48 47 45 44 42 42 40 38 37 34 33 32 31 33 32 33 33 32 30 28 28 28 29 30 30 30 27 26 23 23 21 20 48 90 103 99 100 100 100 101 99 98 99 101 100 100 101 99 101 100 92 92 75 38 20 20 19 26
104 100 103 101 98 108 95 82 102 112 99 99 105 103 103 97 93 103 107 101 100 103 103 104 102 100 100 92 79 76 74 67 64 61 58 56 54 52 50 48 46 45 44 42 42 41 39 38 36 34 32 31 31 32 32 32 32 32 31 29 28 28 29 30 31 30 29 26 24 25 21 30 63 92 100 100 99 100 101 99 100 98 101 106 103 101 101 100 101 99 101 99 77 52 39 30 22
105 102 105 103 98 106 95 83 104 113 103 102 103 102 102 103 95 93 105 106 100 102 103 102 102 102 102 97 90 85 79 75 71 66 60 56 54 51 48 47 46 45 44 44 43 43 42 40 38 36 35 33 31 31 31 31 31 32 32 31 30 30 29 29 30 30 30 29 25 24 26 25 36 64 90 100 100 99 100 100 100 98 100 109 107 99 98 98 101 102 98 101 101 88 80 69 38
101 101 102 104 101 101 95 94 110 108 102 106 102 101 104 108 100 86 97 108 102 102 102 100 101 102 103 102 101 99 94 91 86 78 69 61 56 53 51 48 47 47 45 45 44 44 44 43 41 39 37 35 33 32 31 30 30 30 31 32 32 31 32 32 31 31 31 30 29 25 26 26 26 37 58 80 96 101 100 100 100 99 100 108 106 96 93 96 100 101 100 99 100 100 101 98 73
103 101 99 103 98 97 99 97 106 107 103 106 102 102 105 106 104 91 93 104 104 102 99 100 102 100 102 103 103 102 100 98 94 88 80 71 63 58 57 54 50 49 47 46 44 44 46 45 44 42 40 38 36 34 32 31 31 29 29 29 31 31 31 33 33 33 32 31 30 27 26 27 27 28 32 45 69 91 100 102 100 99 102 105 104 98 95 98 101 100 101 101 101 102 102 103 100
102 101 101 102 92 97 100 86 99 111 105 106 102 101 107 104 103 99 97 101 104 104 100 99 101 100 101 102 102 100 98 97 94 89 84 79 73 66 62 59 56 53 49 47 45 45 46 45 45 44 43 42 39 37 34 32 32 31 30 29 29 29 29 31 32 33 34 33 32 30 27 26 26 28 28 29 39 60 84 101 103 98 101 106 103 100 100 100 101 99 96 96 98 93 90 98 103
96 94 95 96 87 95 95 81 100 109 100 105 101 99 107 101 99 101 100 102 103 104 104 101 100 101 101 100 100 100 97 96 94 90 86 82 78 73 68 64 59 57 52 48 47 45 45 45 46 45 45 44 42 40 37 35 33 32 32 31 29 30 29 29 30 31 32 33 33 33 30 28 26 26 27 28 29 35 52 80 102 102 98 104 105 103 104 104 101 98 93 95 99 91 88 97 98
98 94 95 92 83 89 89 80 94 99 92 98 95 97 98 90 101 102 94 100 103 100 102 104 103 101 102 101 101 101 100 99 96 95 94 91 86 79 76 72 64 58 54 49 48 47 46 45 45 45 45 45 44 43 41 38 37 34 33 32 31 31 30 29 29 29 30 31 33 34 33 31 28 28 26 26 28 29 31 46 78 102 101 99 104 106 107 107 104 101 97 96 99 99 99 100 99
98 93 100 100 88 90 92 84 87 86 82 82 82 90 85 81 101 100 87 95 100 100 102 104 105 102 102 103 101 101 102 102 98 96 97 97 94 88 83 80 73 64 58 52 48 47 47 46 45 44 44 45 45 45 44 42 40 38 36 34 33 32 32 31 30 29 29 29 30 32 34 34 31 29 28 27 26 29 29 27 44 79 101 100 100 104 107 108 105 102 101 98 95 98 101 99 101
99 93 101 104 96 92 94 92 90 85 80 78 81 87 83 81 90 88 90 95 89 96 103 101 103 103 105 106 103 102 102 104 101 97 95 93 93 92 87 84 77 71 66 60 54 49 46 45 45 45 44 44 44 44 44 43 42 41 40 37 35 34 33 33 32 31 30 29 29 30 31 33 34 32 31 29 27 26 29 28 27 45 78 98 101 100 103 107 106 101 100 101 98 98 100 99 100
102 99 99 104 104 98 96 94 93 89 85 87 91 95 97 96 86 77 93 103 90 91 97 97 100 101 102 104 104 106 106 107 105 101 99 95 92 92 89 84 76 72 71 68 64 59 54 49 46 45 45 43 43 43 42 42 42 41 41 39 38 36 35 35 34 32 32 30 29 29 29 30 32 33 33 31 30 27 27 29 28 28 43 73 95 101 102 105 107 104 101 102 101 101 103 100 100
94 92 90 98 104 105 104 102 100 91 87 93 93 93 103 108 95 77 84 102 100 93 92 93 97 98 98 99 99 101 104 105 104 101 101 99 97 95 92 87 77 71 72 71 67 66 63 59 54 51 48 45 42 42 41 41 40 40 39 39 38 38 37 36 36 34 33 33 31 30 29 29 29 30 32 32 31 30 27 26 29 28 26 40 68 90 101 103 104 103 101 103 103 103 105 101 100
88 87 87 91 98 104 107 106 103 91 91 101 94 90 102 109 104 85 73 90 104 96 89 91 94 95 94 95 97 98 99 101 99 99 100 100 100 100 97 93 86 77 75 73 68 66 65 62 60 58 55 52 48 44 43 41 40 38 38 38 37 37 37 37 37 36 35 34 33 32 31 29 29 28 29 30 31 31 30 27 25 28 27 26 36 58 83 98 104 102 96 98 101 104 108 106 102
83 85 85 88 92 97 97 96 95 88 92 104 101 101 104 103 107 93 69 83 106 99 87 88 95 98 93 92 95 96 98 99 97 95 97 99 100 101 100 96 93 88 83 78 70 65 65 62 59 58 57 57 55 52 49 46 44 41 38 37 36 35 36 36 36 36 36 35 34 33 33 31 30 29 28 27 29 29 30 30 27 25 27 26 25 33 52 74 93 103 100 96 96 97 102 105 104
71 73 73 78 81 83 85 86 86 88 94 102 104 104 94 87 100 97 75 82 104 105 95 89 93 100 98 93 93 93 91 93 94 92 92 95 93 92 93 91 89 89 87 83 77 70 67 65 60 57 56 55 55 55 54 52 50 47 43 39 37 35 34 34 34 35 35 35 35 34 33 33 32 31 30 28 27 27 27 29 30 27 25 25 25 25 31 43 62 86 100 103 100 95 96 97 96
60 61 61 64 67 67 69 72 73 76 83 89 92 89 79 77 92 96 82 77 87 99 100 94 92 97 99 98 95 93 90 87 86 85 86 90 89 83 82 82 81 80 78 79 81 78 73 71 68 64 62 60 57 56 55 55 53 51 49 45 41 38 35 33 33 32 33 33 33 34 33 33 33 31 32 31 29 28 27 26 28 29 27 25 24 24 25 27 35 53 76 95 103 101 99 99 94
67 65 63 60 62 61 58 59 60 61 65 67 68 67 66 71 83 91 90 82 81 92 100 99 97 96 98 101 100 96 94 90 84 79 78 81 83 81 78 77 76 74 72 72 74 75 73 71 71 70 70 70 68 65 62 60 58 55 52 50 47 43 39 35 33 31 30 30 29 30 31 31 32 32 31 32 31 29 29 27 26 26 27 27 25 23 24 24 25 31 45 67 90 100 101 101 100
83 79 74 70 72 71 64 59 57 56 56 54 54 54 54 59 65 70 79 81 79 84 93 97 96 94 94 96 97 97 96 94 90 84 79 76 77 78 76 74 73 71 70 70 70 69 68 66 67 69 70 74 75 73 72 70 66 62 56 52 49 47 43 38 35 32 30 29 27 27 27 28 28 29 29 29 31 31 30 29 28 26 26 26 26 24 23 23 23 24 27 39 60 82 95 100 102
83 83 85 84 83 81 76 72 70 67 62 56 54 53 51 53 53 53 59 67 69 67 69 74 76 77 78 79 81 84 86 88 89 88 84 80 78 77 75 72 70 70 69 70 69 68 67 66 66 67 68 71 72 71 72 72 71 69 64 57 52 48 46 42 38 34 30 28 27 26 25 25 25 26 26 26 26 28 29 29 30 29 27 26 25 25 24 22 22 22 23 25 33 50 73 91 100
77 80 84 85 82 81 81 78 77 78 75 67 63 61 58 57 58 58 56 59 64 60 53 53 56 56 57 59 61 63 66 69 72 75 76 75 75 75 74 71 68 68 67 67 67 67 68 67 67 67 66 68 69 68 68 69 69 71 69 65 59 52 47 44 41 38 34 29 27 26 25 25 24 23 23 23 23 23 24 25 27 28 28 28 27 26 25 23 22 20 21 22 24 29 42 64 84
76 77 77 76 76 78 80 78 76 77 76 71 68 66 64 64 69 76 76 71 69 65 56 50 49 50 49 49 49 50 51 53 54 56 58 59 62 63 65 66 65 65 64 63 65 65 66 67 67 67 66 66 67 67 66 67 69 71 70 67 65 61 54 48 43 40 37 33 30 28 27 25 25 24 23 22 22 21 21 21 22 23 25 26 26 26 26 25 23 21 20 19 21 22 25 35 54
69 70 71 72 74 76 79 78 72 68 68 67 64 63 63 64 70 80 88 89 85 80 74 67 59 55 53 51 50 48 48 48 48 49 48 48 49 50 52 54 55 56 56 57 60 61 61 62 63 64 65 65 66 66 66 67 68 68 65 63 62 63 62 56 49 42 38 36 34 31 30 29 27 26 24 23 22 21 21 20 20 20 20 21 22 24 25 25 24 23 21 19 19 20 20 22 29
57 57 60 64 69 75 78 76 70 65 65 63 58 54 56 64 71 73 76 84 86 83 81 82 77 70 63 59 58 57 55 56 56 54 52 50 48 48 47 47 47 47 47 49 51 52 53 54 55 56 58 59 60 61 61 61 61 59 55 53 51 54 57 58 55 49 43 39 36 34 32 30 30 28 27 26 24 23 22 21 21 20 20 19 19 20 20 22 24 23 23 21 19 19 18 19 20
52 51 50 52 54 58 60 62 63 66 68 64 56 49 49 63 77 75 69 71 76 77 75 73 73 72 69 63 61 63 64 67 70 68 65 63 60 58 54 51 49 45 44 45 45 45 46 46 47 48 49 51 52 52 52 51 50 48 46 45 43 44 46 50 52 52 49 44 39 36 33 31 30 28 27 26 25 25 24 24 23 21 21 21 19 19 18 18 20 21 23 23 21 20 18 17 18
Wind_Speed
87 87 87 87 87 87 87 87 87 87 87 87 87 88 86 84 85 85 85 85 85 85 85 84 84 83 83 83 82 83 83 83 83 82 83 84 83 82 81 80 80 81 82 82 82 83 83 82 81 82 84 85 84 82 84 87 89 93 96 96 94 90 86 83 79 76 74 70 68 67 68 66 63 62 59 57 56 55 53 50 48 47 46 45 44 43 41 40 39 37 36 33 29 26 23 21 20
89 89 89 89 89 89 89 89 89 89 90 90 91 92 87 86 89 88 86 88 87 87 87 87 87 86 86 85 84 85 85 85 84 84 84 84 83 82 82 81 81 80 80 80 81 82 84 86 87 89 90 88 86 87 90 92 94 96 96 94 91 87 84 83 79 76 73 70 68 67 68 66 62 60 57 56 54 52 51 49 48 46 45 44 43 42 41 39 37 36 34 32 26 24 22 20 22
92 92 92 92 91 92 91 92 92 92 93 93 95 94 88 90 92 90 89 90 90 90 90 89 89 89 89 88 87 88 88 87 87 87 87 87 86 86 85 85 85 83 82 82 84 86 89 93 93 93 93 91 91 92 93 93 95 95 94 91 88 85 83 82 79 76 72 69 67 66 68 67 61 57 56 55 53 50 49 49 48 46 45 44 42 40 39 37 36 34 33 30 25 23 20 20 22
96 96 95 95 95 95 94 95 95 95 95 96 99 95 90 94 93 92 94 92 93 92 92 92 92 91 91 91 90 90 90 90 90 90 90 90 90 89 89 89 89 88 87 88 88 88 89 92 94 94 94 93 93 93 94 95 95 93 91 89 87 85 82 80 77 73 70 68 66 66 67 66 60 56 55 54 51 49 49 49 47 46 45 44 41 39 38 36 35 33 31 28 25 23 19 21 24
99 98 98 98 97 97 97 97 97 98 98 98 101 95 91 97 94 94 96 94 95 94 94 94 94 94 94 93 93 93 93 92 92 92 92 92 92 91 92 92 92 92 91 91 90 88 88 91 93 94 94 93 93 93 95 95 93 91 89 87 85 83 80 77 73 69 66 65 64 64 65 62 59 56 54 52 50 49 49 48 46 45 44 43 41 39 37 35 34 32 31 28 25 23 23 23 25
100 100 100 99 99 99 99 99 98 99 101 100 102 97 94 98 96 97 97 96 97 96 96 96 96 96 96 96 95 95 95 95 94 94 94 94 94 94 94 94 95 95 94 94 94 94 94 95 95 95 94 93 93 94 94 93 91 89 86 84 81 78 75 72 69 66 63 62 61 62 61 58 56 55 52 51 50 49 49 48 46 45 44 43 41 39 36 35 34 32 31 28 26 25 28 27 25
101 100 100 100 99 99 98 99 99 100 102 100 101 100 98 99 98 99 99 99 98 98 98 98 98 98 97 98 97 98 97 97 97 97 96 96 97 97 97 96 97 96 96 97 97 97 98 98 98 97 95 94 93 92 92 90 88 86 83 80 78 75 72 68 66 63 61 60 59 59 58 55 54 52 51 50 49 48 48 46 45 45 43 42 41 38 35 34 34 33 31 29 28 27 31 28 24
102 101 101 100 99 99 99 99 100 102 101 99 101 101 100 100 100 100 100 100 99 99 100 100 100 99 99 99 99 100 100 99 99 99 99 99 99 100 99 98 98 98 98 99 99 99 100 100 99 97 95 92 91 90 88 87 85 83 80 77 75 72 69 66 64 61 59 58 58 57 55 52 52 52 50 49 48 47 46 44 44 44 43 43 41 39 36 35 34 34 31 29 29 29 34 30 25
103 102 102 101 100 100 100 100 101 103 100 99 102 102 101 101 101 101 100 100 100 100 101 101 102 101 101 101 101 102 101 101 101 101 101 101 101 101 101 100 99 99 99 99 99 99 99 98 97 94 92 90 88 86 85 83 82 79 77 74 72 69 66 64 62 60 58 57 57 56 54 52 52 51 48 46 45 45 44 44 43 43 44 44 42 40 38 36 34 34 31 29 30 30 36 34 30
104 103 103 102 102 101 101 102 103 104 101 100 102 102 103 102 102 102 101 101 100 101 102 102 102 101 101 102 102 103 102 102 101 102 102 102 101 101 101 100 99 99 98 97 97 97 97 96 94 92 89 86 85 83 81 80 78 76 73 70 68 66 64 63 61 60 58 56 55 54 52 51 50 49 46 44 43 42 42 42 43 44 44 44 41 40 38 35 34 33 30 29 30 30 38 37 33
104 104 103 103 103 102 103 103 105 105 101 102 104 104 104 103 103 103 103 102 102 102 103 103 103 102 102 103 103 103 103 102 102 101 101 101 100 100 100 99 98 98 96 95 95 94 94 93 91 88 85 83 81 79 78 76 74 72 70 67 65 63 62 62 60 58 56 53 51 49 47 46 47 47 45 43 42 41 41 41 42 43 42 40 39 38 36 34 32 31 29 28 30 31 39 38 33
103 104 103 102 102 103 103 104 106 104 101 104 105 104 104 104 104 103 103 102 102 102 102 102 102 102 102 102 103 103 102 101 101 100 100 99 98 98 98 97 96 96 95 93 92 92 91 90 88 85 82 80 79 77 75 73 71 69 66 64 62 61 60 59 58 56 54 51 48 46 45 45 46 46 44 42 41 40 39 39 39 38 38 37 36 36 35 32 30 30 28 28 30 32 41 40 32
103 103 102 102 102 102 102 103 105 102 101 105 104 103 104 103 103 103 102 101 102 101 101 101 101 102 101 101 101 101 100 100 99 99 98 97 96 95 95 94 94 93 93 92 90 89 88 86 84 82 80 78 76 73 70 67 65 63 61 60 60 59 58 57 57 55 52 49 47 46 45 46 45 43 43 41 40 39 38 37 37 37 37 36 35 34 33 31 30 29 28 28 30 35 43 40 32
102 101 101 101 101 101 100 102 103 101 102 103 101 102 102 101 101 101 101 101 100 99 99 100 100 100 99 99 99 98 98 98 97 96 95 94 93 92 92 91 91 91 90 89 88 86 85 83 81 80 78 76 73 69 65 62 58 56 56 57 57 57 57 56 55 54 52 50 49 48 46 46 44 42 42 42 40 38 36 36 37 37 36 34 34 33 31 30 29 28 27 29 31 37 44 40 34
100 100 100 99 99 99 99 101 101 100 101 99 98 100 99 99 99 98 99 98 97 97 97 97 98 97 97 97 96 96 96 95 94 93 92 91 90 89 89 88 88 88 87 86 85 83 82 81 80 78 75 72 69 62 56 55 54 52 54 55 55 55 55 54 54 54 54 53 52 50 46 45 43 41 41 42 41 37 35 35 36 35 34 33 33 32 30 28 28 27 27 30 32 38 44 39 37
100 99 99 98 98 98 99 100 98 100 101 96 95 97 96 96 97 96 97 96 95 95 95 94 95 95 94 94 93 94 93 92 91 90 90 89 88 87 86 86 85 85 84 83 82 81 79 78 77 74 71 69 65 56 50 54 54 52 52 52 52 53 53 52 52 53 53 53 53 51 48 45 44 42 43 43 40 35 35 36 35 33 32 32 32 31 28 27 27 26 27 30 33 39 44 40 40
99 98 98 98 98 98 99 98 97 100 97 92 94 95 94 95 95 94 95 94 93 93 92 92 93 92 92 91 91 92 91 90 89 88 87 87 86 85 84 84 83 82 81 80 79 78 76 75 73 71 69 67 64 58 55 55 54 51 50 49 50 51 49 48 49 50 52 52 53 53 52 50 47 45 44 44 39 35 36 36 33 31 31 30 30 29 27 26 26 25 27 31 35 40 44 43 42
98 98 97 97 97 99 98 95 96 97 94 92 94 93 93 93 93 93 93 92 91 91 91 91 90 90 90 90 90 89 88 88 87 86 85 84 83 82 82 81 80 79 78 77 76 75 73 71 70 68 66 65 62 60 56 51 51 50 46 46 48 48 45 44 46 46 47 49 52 54 54 53 50 47 46 44 40 38 38 35 32 30 29 29 30 29 25 24 25 25 27 31 36 41 44 44 44
97 97 96 96 98 97 94 93 95 95 93 92 92 92 92 92 91 91 91 90 90 90 90 89 88 88 89 88 88 87 87 86 85 84 82 81 80 79 79 78 77 76 75 73 72 71 69 67 66 65 63 62 60 58 56 51 51 50 46 45 46 45 41 39 40 40 42 45 47 48 49 50 48 44 42 41 39 38 35 32 30 29 28 29 30 28 25 24 24 25 27 32 36 41 44 46 45
95 95 95 96 96 93 92 93 93 93 91 91 90 90 90 89 89 90 89 88 88 89 88 87 86 86 87 87 86 85 85 84 82 81 80 79 77 76 75 74 74 73 71 70 68 67 65 64 63 62 60 59 58 57 55 52 50 48 46 45 43 41 37 35 36 37 40 41 40 39 39 39 38 35 35 36 36 34 32 31 30 28 29 29 29 28 25 24 24 25 27 32 37 41 45 47 47
93 93 93 93 91 90 91 91 90 90 89 89 88 88 87 87 87 87 87 86 88 87 84 84 85 85 85 84 84 83 82 81 79 78 77 76 74 73 72 71 70 69 68 67 66 64 63 61 60 59 58 57 56 54 53 50 48 46 44 40 38 37 35 34 34 33 35 34 32 32 31 30 30 28 30 33 32 31 31 31 29 29 29 29 29 28 27 25 24 26 27 32 37 41 45 48 48
90 90 89 88 88 88 88 87 87 87 86 86 86 85 84 84 84 84 84 85 85 82 81 83 83 81 82 81 81 80 78 77 76 75 74 73 71 70 69 67 67 66 66 65 64 62 60 59 57 56 55 54 53 51 50 48 46 43 41 38 34 32 32 30 28 28 30 31 30 29 26 23 25 26 28 31 31 30 28 28 28 28 29 29 29 28 28 26 25 26 27 30 35 40 45 48 49
86 86 85 84 84 83 82 83 83 83 82 82 81 80 80 81 81 80 81 81 79 78 80 80 79 78 78 78 77 76 74 73 72 71 70 69 67 66 65 64 63 62 62 61 61 59 58 56 55 53 52 50 50 48 47 46 43 42 39 36 33 32 30 24 23 27 30 33 31 26 22 20 22 24 28 29 27 25 23 25 28 29 29 28 28 28 28 27 26 26 27 29 33 39 45 48 50
81 80 80 80 79 78 78 78 78 78 78 77 76 76 76 76 76 76 77 76 75 76 76 76 75 74 75 74 73 72 70 69 68 67 66 64 63 63 62 61 59 59 58 58 57 56 54 53 52 50 49 47 46 46 44 44 42 40 37 33 32 33 31 23 21 27 32 34 31 25 21 19 19 20 24 26 23 24 23 26 30 29 28 27 28 29 28 28 27 27 27 28 30 35 42 47 50
75 74 74 74 73 73 73 73 72 73 72 71 72 72 71 71 71 72 73 71 72 72 72 72 71 71 71 70 69 68 67 66 64 63 62 60 59 59 58 57 56 55 54 54 53 52 51 50 49 48 47 45 44 43 42 42 41 39 36 33 32 32 32 29 26 28 29 29 26 23 20 19 21 20 21 24 24 27 26 27 30 28 27 28 28 29 29 28 27 28 27 28 29 33 39 45 50
68 67 68 69 68 68 68 68 67 67 67 67 68 68 68 68 68 69 68 68 69 69 69 68 67 67 67 66 65 64 63 62 61 60 58 56 55 54 53 53 52 52 50 50 49 49 48 47 46 45 44 42 41 40 39 39 39 38 37 36 36 37 38 37 34 30 27 27 24 23 23 22 24 25 26 28 27 27 27 27 27 23 23 27 29 29 29 28 27 28 28 28 29 31 36 43 49
61 61 62 62 62 62 62 62 62 63 63 64 65 64 65 65 66 66 64 64 66 66 66 65 64 64 64 63 62 61 60 59 57 56 54 53 51 49 49 48 48 48 47 47 46 46 45 45 44 42 41 40 39 38 37 37 37 37 37 37 39 42 45 44 40 34 31 32 29 28 26 20 22 27 30 34 33 28 26 26 25 21 22 27 29 29 29 28 27 27 28 29 29 30 34 39 46
56 56 56 57 57 57 58 58 59 60 60 61 61 61 62 62 63 62 59 62 64 63 62 62 62 61 60 59 58 58 57 55 54 52 51 49 47 45 44 44 45 45 44 44 44 43 42 42 41 40 39 38 37 36 35 35 36 36 36 37 39 41 45 47 44 37 35 36 33 32 28 22 26 31 31 35 36 31 26 24 23 21 23 26 27 28 28 27 27 27 28 29 29 29 32 36 41
51 51 52 52 53 53 54 54 55 56 56 57 58 57 58 59 60 57 55 60 61 59 60 59 58 58 57 56 55 55 53 52 50 48 47 45 43 41 41 42 42 42 42 42 41 41 40 39 39 37 37 37 35 34 34 34 35 36 36 37 38 40 42 45 44 40 39 39 36 35 34 31 34 35 34 35 36 35 29 24 20 19 21 23 25 27 27 26 26 26 27 28 29 29 30 34 38
47 48 48 48 49 50 50 50 52 52 52 54 54 54 55 56 56 52 53 57 57 56 56 55 55 54 53 53 52 51 49 48 47 45 45 43 40 39 38 39 40 40 40 40 39 38 38 37 36 35 35 35 35 34 34 34 35 36 37 37 38 39 39 40 41 41 42 41 39 38 38 38 38 38 38 37 35 35 30 24 21 20 21 24 25 26 27 26 26 26 27 27 27 28 29 32 35
43 44 45 45 47 48 46 47 49 49 49 51 51 51 54 54 51 50 51 53 53 53 52 51 51 50 49 49 48 47 46 45 44 44 43 41 38 36 36 37 38 38 39 39 38 37 36 36 35 35 35 35 35 34 34 34 35 36 37 38 38 37 37 37 38 40 42 43 41 40 37 36 40 42 41 36 33 34 30 26 24 22 25 28 27 25 27 27 26 26 27 27 26 27 28 30 32
40 41 43 42 45 45 42 44 47 46 47 49 49 49 53 50 45 48 50 49 50 49 48 47 46 46 46 45 45 45 44 43 43 42 41 39 36 35 36 37 37 37 37 38 37 37 36 35 35 34 35 35 35 35 35 35 35 36 37 38 37 37 37 36 36 37 40 43 42 42 37 32 37 43 42 36 32 34 32 28 24 23 28 32 29 26 28 27 25 25 26 26 26 27 28 29 31
37 39 41 40 43 44 40 43 47 45 46 49 49 49 52 48 41 46 50 46 46 46 44 44 43 44 44 43 43 43 42 42 41 40 38 37 35 35 36 36 37 37 37 38 38 37 36 36 34 34 35 35 35 35 36 36 36 37 38 38 38 37 37 36 36 36 38 41 42 45 42 34 34 39 41 38 34 35 32 28 24 26 31 34 31 28 28 28 25 24 24 25 27 27 28 29 31
36 38 40 39 43 44 41 43 45 45 46 48 48 48 50 46 39 45 49 44 43 44 42 42 43 44 44 43 43 43 42 41 40 38 36 36 36 36 36 36 36 37 38 38 37 37 36 35 34 34 35 35 36 36 36 37 37 37 38 38 38 37 37 36 36 37 37 39 41 44 44 38 35 37 40 40 38 36 33 30 28 29 33 35 32 28 28 29 27 23 20 22 25 26 26 28 30
38 40 42 42 43 45 44 41 43 47 47 46 47 47 48 46 40 43 46 42 41 43 42 42 44 44 43 43 44 43 41 40 39 36 36 37 37 35 35 35 36 37 38 38 37 37 36 36 35 35 35 35 36 37 37 37 37 38 38 38 39 38 37 37 36 37 38 38 40 42 43 42 38 38 40 42 41 39 36 35 33 31 36 37 33 31 30 31 29 25 21 21 23 25 24 25 28
42 43 44 44 43 46 45 38 40 49 48 45 46 47 47 45 41 42 43 42 41 43 44 43 44 44 44 45 45 43 41 40 38 37 37 38 36 35 34 35 37 38 38 38 37 37 37 36 36 36 36 36 37 38 38 38 38 39 39 39 39 38 38 38 37 37 38 39 40 41 42 43 43 40 41 43 43 43 41 39 37 36 39 40 38 36 34 32 30 29 26 24 25 25 24 23 25
42 43 44 45 43 46 45 37 41 50 47 45 46 45 46 46 43 41 41 42 43 45 46 44 44 45 46 46 45 44 43 41 39 38 38 38 37 36 35 36 38 39 39 38 38 38 37 37 37 37 37 37 37 38 39 39 39 39 40 40 40 40 39 39 38 38 38 40 41 42 42 43 45 44 44 45 45 45 46 45 44 43 42 43 42 40 37 34 32 32 31 29 27 23 22 24 25
43 44 45 46 46 47 44 40 45 49 47 47 46 44 46 47 44 41 40 42 45 47 46 44 45 45 46 46 46 45 44 43 41 40 40 39 38 37 37 37 39 39 39 39 39 38 38 38 38 38 38 39 39 39 40 40 40 41 41 41 42 42 41 40 40 40 39 40 41 43 44 43 45 46 46 47 47 47 47 48 49 48 46 45 44 41 38 37 35 33 32 33 30 24 21 24 26
46 47 47 48 48 47 46 44 46 48 48 49 46 45 48 49 46 43 42 43 46 48 46 45 46 45 46 47 47 46 45 44 43 42 41 40 40 40 39 39 40 41 41 41 40 40 40 39 39 39 40 40 41 41 41 41 41 41 42 42 43 44 44 43 42 42 41 41 42 43 45 45 45 47 48 48 49 48 47 48 50 50 48 47 46 43 41 41 39 37 35 34 32 28 25 25 25
48 48 48 50 49 47 49 46 45 49 49 49 48 48 51 51 48 46 45 45 47 49 48 47 47 47 48 48 47 47 45 45 44 43 43 42 42 42 42 41 42 42 42 42 42 42 42 41 41 41 41 42 42 43 43 42 42 42 43 43 43 44 45 45 44 44 44 43 43 44 46 47 47 47 49 50 50 50 48 48 49 51 50 49 49 46 44 44 44 41 39 36 33 32 31 30 27
50 50 50 52 50 49 52 47 47 52 50 50 49 49 52 52 49 48 48 48 49 49 49 49 49 49 49 49 48 48 47 46 46 45 44 43 43 43 43 43 44 44 44 43 43 43 43 43 43 43 43 43 44 44 44 44 44 44 44 44 44 45 45 46 46 46 46 45 45 46 46 48 49 48 49 51 51 51 50 49 50 51 52 51 50 49 48 47 47 44 42 39 36 36 35 33 31
51 51 52 53 51 51 53 50 51 54 51 51 50 50 53 51 50 52 50 50 50 50 50 50 50 51 51 50 50 49 48 48 47 46 46 45 45 44 44 45 45 45 46 45 45 45 45 45 45 44 44 45 45 46 46 46 46 46 46 46 46 46 46 47 47 47 47 47 47 48 48 49 50 50 50 52 53 53 53 51 51 52 53 53 52 52 51 51 50 47 45 42 39 39 38 35 34
53 52 53 55 53 52 54 52 53 55 53 52 51 53 54 51 52 54 51 51 52 51 52 52 52 52 52 52 52 51 51 50 49 48 48 48 47 47 47 47 47 47 47 47 46 47 47 46 46 46 46 46 46 47 47 47 48 48 48 48 48 48 49 49 49 49 49 49 49 49 50 50 51 52 52 52 53 54 55 54 53 53 54 54 54 54 54 54 53 51 48 45 44 43 41 39 38
55 54 55 56 55 54 55 55 56 56 55 54 55 56 55 54 56 55 52 54 54 53 54 53 54 54 54 54 54 53 53 52 51 50 50 50 49 49 49 49 49 49 48 48 48 48 49 49 48 48 48 48 48 48 49 49 50 50 50 50 50 50 51 51 51 52 52 52 52 51 52 52 52 53 53 54 54 55 56 56 55 55 55 56 56 56 56 57 56 54 51 48 48 47 44 42 43
56 56 56 56 57 57 57 58 58 58 57 57 58 58 58 59 60 56 55 57 56 55 55 55 55 56 56 56 56 55 55 54 53 52 52 51 51 51 52 52 51 50 50 50 50 50 50 50 50 50 50 50 50 51 51 51 52 52 52 52 52 52 52 53 53 53 54 54 54 54 54 54 54 54 55 55 55 56 57 57 58 58 57 57 57 58 58 59 59 57 55 52 51 51 49 46 46
58 58 57 57 58 58 59 59 60 60 59 59 61 60 60 62 63 60 58 59 59 58 57 57 57 57 57 58 58 58 57 57 56 56 55 54 53 54 54 53 53 52 52 51 51 51 51 51 51 51 51 51 52 53 54 54 54 54 54 54 54 54 54 54 55 55 55 55 55 56 56 56 56 56 56 57 57 57 58 59 59 60 60 60 60 59 59 60 61 61 59 57 54 53 53 51 50
60 60 59 59 59 60 61 61 62 62 60 62 64 62 62 64 65 64 61 59 61 62 60 59 59 60 60 59 60 60 60 60 59 58 58 57 56 56 56 55 54 54 54 54 53 53 52 52 51 51 51 52 53 54 55 56 57 57 56 56 56 56 56 56 57 57 57 57 57 57 57 58 58 58 58 58 58 59 59 60 61 61 62 62 63 63 62 61 62 63 63 62 60 57 56 55 54
61 61 61 61 62 63 64 64 65 64 63 65 65 64 66 66 66 68 63 59 63 65 63 61 61 62 62 62 62 62 62 62 61 60 60 60 59 59 59 58 57 56 56 56 55 55 54 53 52 52 52 53 53 54 56 57 58 59 59 59 58 58 58 58 59 59 59 59 59 59 59 59 59 59 60 60 60 61 61 61 62 62 63 64 65 66 66 64 63 64 65 66 65 62 60 59 57
63 63 62 63 65 66 66 66 67 66 66 67 67 68 68 66 67 69 65 62 65 67 66 64 64 64 65 64 64 65 64 64 64 63 62 62 62 61 61 60 59 59 58 57 57 56 56 55 54 54 53 54 55 55 56 58 59 60 60 60 60 60 61 61 61 61 61 62 61 62 62 61 61 61 61 61 62 62 63 63 63 64 65 66 67 68 68 68 67 65 65 67 67 66 64 63 62
64 63 63 64 66 68 67 68 69 69 70 71 70 70 68 65 68 70 68 66 66 67 68 67 66 67 67 67 67 67 67 67 67 66 65 65 65 64 63 62 62 61 60 59 58 58 57 57 56 56 55 56 57 57 57 58 59 59 60 60 61 62 63 63 64 64 64 64 64 64 64 63 63 63 63 63 63 63 64 65 65 66 66 67 68 69 70 71 71 69 68 67 68 68 66 65 66
64 64 65 65 67 69 69 69 71 71 72 72 71 70 67 66 69 70 70 70 68 68 70 70 70 70 69 69 70 70 70 71 70 69 68 68 68 67 66 65 65 64 63 61 61 60 59 59 58 57 57 57 58 58 59 59 60 60 61 61 61 62 63 64 65 66 66 66 66 66 66 65 65 65 65 65 65 65 65 66 66 67 68 69 69 70 72 72 73 72 72 70 69 69 68 66 66
67 67 67 67 68 72 72 71 72 73 73 72 70 69 67 67 69 69 70 71 71 71 72 73 73 72 72 72 72 72 72 72 72 72 71 70 70 70 69 68 67 66 65 64 64 63 62 61 60 60 59 60 60 60 60 61 61 62 62 62 63 63 64 65 65 66 67 67 67 67 67 67 67 67 67 67 67 67 67 67 68 68 69 70 71 71 72 73 74 74 74 74 72 71 70 68 66
70 70 70 70 72 74 74 73 73 75 75 71 70 69 67 68 69 68 70 71 73 74 73 74 74 73 73 73 73 73 73 73 73 73 73 72 71 71 71 70 69 68 67 66 66 65 64 64 63 63 63 63 63 62 62 63 63 63 64 64 65 65 65 65 66 66 66 67 67 67 68 69 69 70 70 69 69 69 69 69 69 70 70 70 72 73 74 74 75 75 76 76 76 75 74 72 69
73 73 74 76 76 75 76 77 76 77 77 74 72 71 68 68 68 69 72 72 74 76 75 73 74 73 73 73 73 73 73 73 74 74 74 73 73 72 72 71 70 70 69 68 67 66 66 65 65 65 65 65 66 65 64 64 64 65 66 66 66 67 67 67 67 67 67 67 67 67 68 69 70 70 71 71 71 71 71 71 71 71 71 71 72 73 75 76 76 76 77 78 78 78 77 76 74
76 78 79 79 79 78 80 81 80 80 80 78 75 74 71 69 69 71 74 75 75 77 77 75 74 74 74 73 73 73 73 73 73 73 74 73 73 73 73 72 72 71 70 69 68 68 67 67 66 67 67 67 67 67 67 67 67 67 67 68 68 68 69 68 68 68 68 68 67 68 68 69 69 70 71 71 72 72 72 72 72 73 73 73 73 74 75 76 77 77 78 79 80 80 80 79 79
80 80 81 81 81 82 83 85 85 84 83 82 80 78 75 72 72 74 77 78 78 79 79 78 77 76 75 74 73 73 73 73 74 74 74 73 73 72 72 72 72 71 70 69 69 70 69 68 68 68 68 68 68 68 69 69 69 69 69 69 69 70 70 70 70 70 69 69 69 69 69 69 70 70 71 71 71 71 72 72 73 73 74 74 75 75 76 76 77 78 79 80 81 82 82 82 82
82 82 82 82 83 84 86 87 87 87 87 86 85 82 77 75 77 78 79 80 81 82 81 81 80 79 78 76 76 75 75 75 76 76 75 74 73 73 72 71 71 70 69 69 69 70 70 69 69 69 69 69 70 70 70 70 71 71 70 70 70 70 71 72 72 72 71 71 71 72 72 72 71 71 71 71 71 71 71 72 73 74 74 75 76 76 77 77 77 78 80 81 82 83 83 84 84
84 84 84 84 85 87 88 88 87 88 89 89 88 84 79 77 81 83 82 82 83 84 85 84 83 82 82 80 79 78 78 78 79 78 77 76 75 75 74 73 72 71 69 69 69 70 69 69 69 70 70 71 71 72 72 72 72 72 71 71 71 71 72 72 72 73 73 73 73 74 74 74 73 73 73 73 72 72 72 73 73 74 75 76 76 77 78 78 78 79 80 81 83 84 84 85 86
Wind_Direction
261 262 263 264 265 266 267 268 269 269 270 270 271 271 271 273 273 273 274 275 275 276 276 277 277 277 278 278 278 278 279 279 279 279 279 279 280 281 281 281 281 283 284 285 285 286 287 287 287 289 291 292 291 291 292 293 294 296 297 297 298 297 297 297 296 295 294 292 290 287 285 285 286 286 286 285 285 284 285 284 283 285 290 293 293 290 288 286 283 282 280 280 277 274 265 254 243
262 262 263 264 264 265 266 267 268 269 269 270 270 270 271 272 272 272 274 274 274 275 276 276 277 278 278 278 279 279 280 280 280 281 281 281 282 282 283 283 283 284 285 286 287 288 288 288 289 290 291 291 291 292 293 294 295 296 296 297 297 296 296 296 295 294 292 290 288 286 283 283 285 284 283 283 283 282 282 281 282 286 289 292 292 289 288 286 283 280 278 279 274 266 257 242 237
262 262 263 264 264 265 266 267 268 268 269 270 269 269 270 271 272 273 273 273 274 275 276 276 277 278 278 279 279 280 280 280 281 282 282 283 283 284 284 284 284 285 285 286 287 288 288 289 289 290 290 291 292 293 294 294 295 295 295 296 296 296 295 294 293 292 290 288 287 284 282 283 283 282 282 281 280 280 279 280 282 286 288 290 290 289 288 286 283 278 275 275 266 258 248 235 236
262 263 263 264 264 265 266 267 267 268 268 269 269 268 270 271 271 272 272 273 274 274 275 276 277 278 279 279 280 280 280 281 281 282 282 283 283 284 284 284 284 284 284 285 286 288 289 289 290 290 291 292 293 293 294 294 294 294 294 295 295 295 295 293 292 291 289 287 286 283 281 282 282 281 280 279 278 278 278 280 282 285 286 288 289 288 288 286 282 276 273 268 257 247 233 233 242
263 263 264 264 265 266 266 267 267 268 268 268 269 269 270 271 271 271 272 272 273 274 275 276 277 278 278 279 280 280 281 281 281 282 282 283 283 284 284 284 284 284 284 284 285 286 287 288 289 290 291 292 293 293 293 293 293 294 294 295 295 294 293 292 290 289 287 285 285 282 280 281 280 279 278 277 276 276 277 279 282 284 285 286 288 288 287 285 280 274 270 262 250 237 216 226 243
263 264 264 265 265 266 266 267 267 268 268 268 269 269 269 270 271 271 271 272 272 273 274 275 276 277 278 278 279 280 280 281 282 282 283 283 283 283 283 283 284 284 284 284 284 285 285 287 288 289 290 291 292 292 292 292 292 293 294 294 294 292 291 289 288 286 284 283 283 280 280 279 278 277 277 277 276 276 277 279 281 284 285 285 287 287 285 283 278 270 265 257 245 231 211 218 238
263 264 264 265 265 266 266 267 267 267 267 268 269 269 269 269 270 270 271 271 272 273 274 274 275 276 277 278 278 279 280 280 281 282 282 283 283 283 283 283 284 285 285 285 285 286 286 287 287 288 289 290 290 291 291 291 292 293 293 293 291 290 288 286 285 283 282 281 280 279 279 278 277 276 276 277 276 276 277 279 281 284 284 285 287 285 283 281 274 266 261 253 243 228 211 216 235
264 264 264 265 265 266 266 267 267 267 268 269 269 269 269 269 269 270 270 271 271 272 273 274 274 275 276 277 278 278 279 279 280 281 281 282 282 282 282 283 284 284 285 285 286 286 286 287 287 288 289 289 289 290 291 291 292 292 292 290 289 287 286 284 282 281 280 278 278 278 278 277 276 275 276 276 276 276 277 279 282 283 284 285 286 283 281 278 270 262 257 249 241 225 208 212 229
264 265 265 265 266 266 266 267 267 267 268 268 269 269 269 269 269 270 270 270 271 272 272 273 273 274 275 276 277 277 278 279 279 280 280 281 281 282 282 282 283 283 284 285 285 285 286 286 287 288 288 289 289 290 290 291 291 291 290 288 287 285 283 281 280 279 278 276 276 276 276 275 275 275 276 275 275 276 277 280 282 283 284 284 284 282 278 273 267 259 254 247 238 223 206 210 228
265 265 266 266 266 266 266 267 267 267 268 268 268 269 269 269 269 270 270 271 271 271 272 272 273 274 275 275 276 277 277 278 279 279 279 280 280 281 281 282 282 283 283 284 284 285 285 286 287 287 288 288 289 289 290 290 290 289 287 286 284 282 280 279 278 277 276 275 275 275 274 273 274 274 274 273 274 275 278 280 281 282 283 282 281 278 275 270 265 257 251 243 234 221 206 209 229
265 265 266 266 266 266 266 266 267 267 268 268 268 268 269 269 270 270 270 271 271 271 272 272 273 274 274 275 275 276 277 277 278 278 279 279 280 280 281 281 282 282 283 283 284 285 285 286 286 287 287 287 288 288 288 288 287 286 285 283 281 279 278 278 277 276 275 274 274 273 272 272 272 272 272 271 273 276 278 280 281 281 279 279 277 275 272 267 263 256 250 241 232 220 206 209 227
265 265 265 266 266 266 266 266 267 267 268 267 267 268 269 269 270 270 270 271 271 271 272 272 273 273 273 274 275 275 276 277 277 277 278 279 279 280 281 281 282 282 282 283 283 284 285 285 286 286 286 287 287 287 287 286 284 283 282 280 278 277 277 276 276 275 274 272 272 269 269 271 271 270 271 272 275 277 278 280 279 278 277 277 275 272 269 264 261 255 249 240 231 218 205 211 225
264 265 265 265 265 266 266 266 267 267 267 267 268 268 269 269 270 270 271 271 271 271 272 272 272 273 273 274 274 275 275 276 276 277 278 278 279 280 280 281 282 282 282 283 283 283 284 285 285 285 286 286 286 286 285 283 281 280 279 277 276 275 275 274 273 273 271 269 269 267 266 269 270 271 273 275 277 277 278 278 276 276 276 276 273 269 264 262 261 254 248 238 230 216 206 212 223
264 264 264 265 265 265 266 266 266 266 266 267 268 268 269 269 270 270 270 270 271 271 271 272 272 273 273 273 274 274 275 275 276 277 277 278 279 279 280 281 281 282 282 282 283 283 283 284 284 285 285 285 285 284 282 280 278 276 276 275 274 273 273 272 271 270 268 266 267 265 264 266 267 272 277 278 279 278 278 276 274 273 273 273 270 265 262 261 259 252 244 236 229 215 206 212 218
263 263 264 264 264 264 265 265 266 266 266 267 268 268 269 269 269 270 270 270 271 271 271 271 272 272 273 273 273 274 274 275 276 276 277 278 278 279 280 280 281 281 281 282 282 283 283 283 284 284 283 283 283 281 280 277 275 275 274 274 274 272 271 270 268 268 267 266 265 264 263 263 265 273 278 279 280 278 276 274 271 270 271 270 266 262 260 260 255 248 240 233 228 216 208 211 214
262 262 263 263 263 264 264 264 265 265 266 267 268 268 268 268 269 269 269 270 270 270 271 271 271 272 272 272 273 273 274 275 275 276 277 277 278 279 279 279 280 280 281 281 282 282 282 282 282 282 281 281 279 277 275 274 274 274 272 272 272 271 271 270 269 268 267 265 263 262 261 263 266 272 276 277 278 277 275 272 269 268 269 267 263 261 258 255 251 243 237 231 226 217 211 209 211
261 261 262 262 262 263 263 264 265 266 267 267 266 267 267 268 268 269 269 270 270 270 270 271 271 271 272 272 272 273 274 274 275 276 276 277 278 278 278 279 279 279 280 280 280 281 281 280 280 280 279 278 277 274 272 272 273 271 270 271 270 270 271 271 270 268 266 264 262 261 260 263 268 272 274 274 274 275 274 271 267 267 267 265 261 258 254 250 247 241 234 228 225 217 212 209 209
260 260 261 261 261 262 263 264 265 265 266 265 266 267 267 267 268 268 269 269 269 270 270 270 270 271 271 272 272 273 273 274 275 275 276 277 277 277 278 278 278 278 279 279 279 279 279 278 278 277 277 276 275 273 271 269 269 268 268 268 267 268 269 270 270 268 266 263 261 260 260 262 267 271 271 270 271 273 271 266 265 266 265 263 259 256 251 246 243 238 232 227 225 219 213 209 209
259 260 260 260 261 262 263 263 263 264 264 265 265 266 266 267 267 268 268 268 269 269 269 270 270 271 271 271 272 272 273 274 274 275 275 276 276 276 277 277 277 277 277 277 277 277 277 276 276 275 274 274 273 272 271 269 267 266 265 264 265 266 266 264 265 267 268 267 263 262 261 262 265 268 267 266 268 268 267 264 264 264 262 261 258 255 249 244 241 236 231 226 225 220 215 211 209
259 259 259 260 261 262 262 261 262 263 264 264 264 265 265 266 266 267 267 267 267 268 269 270 270 270 270 271 271 272 273 273 274 274 274 274 275 275 275 275 275 275 275 274 274 274 273 273 273 272 272 272 271 271 270 270 268 267 265 264 264 264 261 258 261 266 269 268 266 264 263 263 263 261 260 262 264 265 266 266 263 260 260 260 258 256 248 242 240 236 230 226 226 221 217 214 211
258 258 258 260 260 260 260 261 262 262 262 263 263 264 264 265 265 266 266 266 266 268 269 268 268 269 270 271 271 272 272 273 273 273 273 273 274 273 273 273 272 272 272 271 271 270 270 270 270 269 269 269 269 269 269 268 267 265 263 262 260 258 257 258 259 265 268 266 266 265 264 264 260 254 254 259 264 268 269 265 261 259 259 259 258 257 251 241 237 236 231 227 226 222 219 217 214
257 258 258 259 259 259 260 260 260 261 261 262 262 263 263 264 264 265 265 265 267 268 267 267 268 269 270 270 271 271 272 272 272 272 273 273 272 272 271 270 270 270 270 269 269 268 268 267 267 267 267 267 267 267 267 266 264 262 260 257 254 248 249 256 258 260 265 265 265 263 262 260 253 249 251 259 267 269 267 264 260 259 258 259 259 258 254 244 235 234 232 228 226 224 220 218 217
256 257 257 257 258 258 259 259 259 260 260 261 262 262 262 262 263 264 264 265 266 266 266 267 268 268 269 270 270 270 271 271 271 271 271 271 271 270 269 268 267 267 268 268 268 267 267 266 265 265 264 264 264 264 264 263 261 259 256 252 247 241 240 249 260 259 256 258 259 256 252 247 244 247 251 259 266 265 263 263 262 260 258 259 260 259 256 249 238 233 233 230 227 225 223 219 218
255 256 256 257 257 257 258 258 259 259 260 260 261 261 261 262 263 263 263 264 265 264 265 267 267 267 268 268 269 269 269 269 269 269 269 269 269 268 267 267 266 266 266 266 266 266 266 266 265 264 263 261 261 260 260 259 258 254 251 247 242 240 236 234 245 251 248 249 250 243 238 235 236 246 254 255 254 253 253 255 258 258 258 260 262 261 258 252 243 234 233 233 230 227 225 221 218
255 255 256 256 256 256 257 258 258 259 259 259 259 260 260 260 261 261 262 263 263 264 265 265 265 266 266 267 267 267 267 267 268 267 267 267 266 266 266 265 265 265 265 265 265 266 266 265 264 263 262 260 258 257 256 255 254 250 245 238 233 233 231 224 228 239 242 241 237 231 230 229 231 237 244 245 244 247 248 248 252 256 261 263 262 262 259 254 248 239 233 233 232 229 226 224 220
254 255 255 255 255 256 256 256 257 257 257 257 258 258 258 258 259 260 261 262 262 262 263 263 264 264 265 265 266 266 266 266 266 265 264 264 264 264 264 265 265 264 264 264 264 264 264 263 262 261 260 258 256 255 252 251 249 247 242 235 228 224 223 223 228 234 230 223 219 222 229 230 236 238 233 236 244 247 243 244 249 253 259 262 262 261 259 254 250 244 237 234 233 230 227 225 222
253 253 253 254 254 254 254 255 255 255 255 256 256 256 257 257 258 258 260 260 260 261 261 262 262 263 263 264 264 264 264 263 263 263 262 262 262 262 263 263 263 263 263 263 262 261 261 260 259 259 257 256 254 252 249 247 245 242 239 234 228 223 223 225 230 234 224 213 209 216 223 226 240 247 242 243 248 247 240 239 243 242 245 254 261 260 257 253 249 244 239 235 233 231 228 226 225
251 251 251 252 252 252 252 252 252 253 253 254 255 255 256 256 257 257 259 259 259 260 261 261 261 261 262 262 262 261 261 261 261 260 260 260 260 260 261 261 261 261 260 259 259 258 258 258 257 256 255 254 252 250 247 243 241 238 235 231 227 224 224 225 228 230 221 212 208 211 212 214 226 236 246 249 247 244 242 238 237 237 243 252 258 258 255 252 247 242 238 235 232 231 228 227 227
249 249 249 250 250 250 250 250 251 252 252 253 254 254 255 255 256 257 258 258 259 260 260 260 260 260 260 259 259 259 259 259 259 259 258 258 258 258 258 258 258 258 257 256 256 255 255 255 255 255 253 252 250 247 244 240 237 235 232 228 226 225 224 224 226 223 219 214 208 207 207 213 221 222 232 244 242 239 239 237 234 234 246 255 256 257 254 250 245 240 236 233 230 229 228 227 228
248 248 248 248 249 248 249 250 250 251 251 253 253 254 254 254 256 257 256 258 259 259 259 259 259 258 258 258 257 257 257 257 257 257 257 257 256 255 255 255 255 255 255 254 254 254 253 252 252 251 250 249 248 244 241 237 233 231 230 227 225 225 224 225 224 220 219 217 211 207 207 214 220 219 225 236 238 233 229 230 228 224 235 250 256 258 256 251 246 240 235 232 228 228 228 227 229
248 249 249 248 249 249 249 250 250 250 251 252 252 252 253 254 256 256 255 256 258 257 258 258 258 257 256 256 256 256 256 256 255 255 255 255 254 252 251 252 253 253 254 254 253 252 251 250 248 247 246 246 245 243 239 234 231 229 228 228 226 226 225 225 226 222 221 221 217 211 209 211 216 219 224 230 233 228 222 221 222 223 233 246 253 256 257 253 247 242 237 232 227 227 228 229 230
249 250 250 249 250 249 248 250 249 249 249 250 250 250 251 252 253 254 253 253 255 255 256 256 256 256 256 255 255 255 255 255 255 255 255 254 251 248 247 248 250 251 253 254 253 251 249 248 246 245 244 243 242 242 239 234 231 229 228 228 228 228 227 226 226 226 223 223 220 216 214 211 210 215 218 221 227 225 222 222 224 232 240 246 248 250 255 253 248 244 240 235 229 225 225 227 229
250 250 250 250 251 249 245 247 249 247 247 249 248 248 251 251 248 250 252 250 252 253 253 254 254 255 255 255 256 256 255 255 255 254 254 253 249 245 243 245 248 250 252 253 253 251 249 247 245 244 242 241 240 239 239 236 232 229 228 228 229 230 230 229 227 227 227 225 223 222 221 216 207 209 212 215 221 222 222 226 230 238 242 244 244 243 251 252 247 243 239 237 235 231 225 224 227
250 251 250 248 249 249 243 243 249 248 246 247 248 248 250 250 243 245 250 248 250 252 251 253 254 254 255 256 256 256 255 255 255 254 253 252 247 244 243 243 247 249 250 251 253 253 251 249 246 243 241 239 238 238 237 237 235 232 230 229 230 231 232 233 230 228 228 228 227 227 226 221 211 208 210 212 216 218 219 222 226 233 239 243 242 237 243 248 246 241 237 237 238 237 232 226 226
247 248 248 246 247 249 245 241 247 250 246 245 247 247 248 248 241 241 248 249 248 251 251 251 253 254 256 257 256 256 256 255 255 253 252 251 248 245 244 244 246 249 250 251 253 253 253 251 248 245 241 238 237 236 236 236 236 235 233 232 232 232 233 234 235 231 229 229 230 231 230 225 218 211 210 212 215 216 216 217 219 225 233 237 236 232 234 241 244 242 237 234 235 237 238 232 227
245 245 246 246 245 248 247 240 243 249 248 245 246 246 246 246 240 238 245 249 249 251 252 251 253 254 255 256 256 257 257 256 255 253 251 251 250 247 245 245 247 249 250 251 252 253 253 251 250 247 244 241 238 236 235 234 235 236 236 236 235 234 234 234 235 235 233 231 230 233 233 230 226 219 214 212 215 215 214 216 215 219 226 229 231 232 231 234 239 241 239 235 232 233 236 236 231
246 246 246 247 245 246 247 241 242 248 249 247 245 245 246 246 242 237 242 249 251 252 253 253 253 255 256 256 257 257 257 256 255 254 253 252 251 249 246 246 248 249 250 251 252 252 252 252 250 249 247 244 241 238 236 234 234 234 235 237 237 237 237 236 235 235 236 234 231 232 234 233 231 227 221 216 215 214 215 217 217 218 223 224 228 231 229 229 234 238 239 237 233 230 231 234 234
246 246 246 248 247 247 247 243 244 247 248 248 245 244 246 247 245 240 241 248 253 253 253 254 255 255 257 257 257 257 257 256 255 254 253 253 252 250 248 247 249 250 251 251 251 251 251 251 250 249 249 247 244 242 239 237 235 234 233 234 236 238 238 238 238 237 236 236 235 233 233 233 233 232 230 224 220 216 215 218 220 222 223 223 226 228 227 228 234 237 239 239 234 231 233 235 234
246 246 247 249 248 248 248 244 246 249 248 248 246 246 248 248 248 245 243 246 252 254 253 254 256 256 257 257 257 256 256 256 255 254 253 252 252 252 250 249 250 250 251 251 251 251 251 250 249 249 249 248 247 245 242 240 238 236 235 234 234 235 237 238 238 238 238 238 237 236 234 234 233 233 234 232 229 223 218 217 221 223 223 223 225 226 225 227 232 234 236 237 232 229 233 237 237
246 246 247 249 248 249 249 245 246 250 250 250 248 247 250 250 249 249 247 246 250 254 254 254 255 256 256 257 257 257 256 255 255 254 253 252 251 251 251 250 250 251 251 251 251 251 251 251 250 249 249 248 248 247 245 242 241 239 238 237 235 235 235 237 238 238 238 238 238 238 237 236 234 232 234 235 235 232 226 219 219 223 223 222 223 224 224 226 230 231 231 231 229 228 232 236 236
249 249 249 249 248 249 250 246 248 250 249 250 249 248 250 250 250 250 249 249 249 251 254 254 254 255 256 257 258 258 257 256 256 255 254 252 251 250 250 250 250 251 252 252 251 251 251 251 251 250 249 249 249 248 247 245 244 242 241 240 239 238 237 237 237 237 237 238 238 238 238 238 237 234 233 235 236 237 235 227 220 221 223 223 222 223 224 225 228 230 231 230 226 227 232 234 234
251 251 251 252 250 250 251 248 248 251 249 250 250 249 249 249 251 251 249 251 251 251 253 254 254 255 256 256 257 257 257 257 256 256 256 255 253 252 251 251 250 251 252 252 252 252 252 251 251 250 250 250 250 249 249 248 246 245 243 242 241 241 240 239 239 238 238 237 237 238 238 239 239 238 235 234 235 237 238 235 228 222 222 223 223 223 224 225 227 229 229 229 227 226 229 231 234
251 251 252 254 253 252 253 251 249 250 250 250 250 251 250 249 251 252 252 252 253 253 253 254 255 256 257 257 257 257 257 257 256 256 255 255 255 254 252 252 251 251 251 252 252 252 252 252 251 251 251 250 250 250 250 249 248 247 246 244 243 242 242 241 241 240 239 238 238 237 238 238 239 240 238 236 235 235 237 238 235 229 224 223 224 224 224 225 228 228 227 227 227 227 228 228 230
253 252 252 254 254 253 254 253 252 251 251 251 252 252 252 251 251 252 254 255 254 254 254 254 255 256 256 257 258 258 257 257 257 257 256 255 254 254 253 252 251 251 252 252 253 252 252 252 252 251 251 251 251 251 251 250 249 248 247 246 245 244 243 242 242 241 241 240 239 238 238 238 238 239 240 239 237 236 236 236 237 235 231 226 224 224 225 226 227 228 227 225 226 228 228 226 226
253 252 252 253 254 254 254 254 254 253 252 252 253 253 254 254 253 252 253 256 256 255 255 255 255 256 256 257 257 258 258 258 258 258 257 257 256 255 254 253 252 251 251 252 252 253 253 252 252 252 252 252 252 252 252 251 250 249 248 247 246 245 245 244 243 242 242 241 241 240 238 238 238 238 239 240 239 237 236 236 236 236 236 233 229 226 225 226 227 227 227 225 225 227 229 228 225
252 252 252 253 254 255 255 255 255 254 253 254 253 253 255 256 255 253 252 255 256 256 255 255 256 256 256 257 257 258 258 258 259 259 259 258 258 257 256 256 254 253 252 252 252 252 253 253 253 252 253 253 253 252 252 252 251 250 249 248 247 246 246 246 245 244 244 243 242 241 241 239 238 238 238 239 239 239 238 237 236 236 236 236 235 232 228 226 226 226 227 226 225 226 228 229 227
253 254 253 253 254 254 254 254 254 254 253 254 254 253 254 255 256 255 252 254 257 256 256 256 257 257 257 257 258 258 259 259 259 259 259 259 259 258 258 257 256 255 254 253 252 252 252 252 252 252 253 254 254 253 253 253 252 251 250 249 248 247 246 246 246 246 245 245 244 243 242 241 240 239 238 238 238 239 239 238 237 236 236 236 236 236 234 231 227 225 226 226 226 226 227 229 230
255 255 255 255 255 254 254 254 254 254 253 253 254 253 252 253 255 256 254 254 257 258 257 257 258 258 258 258 258 258 259 259 259 260 260 260 259 259 258 258 257 257 256 255 254 254 253 253 252 252 252 253 254 254 254 253 253 252 251 250 249 248 247 247 247 246 246 246 245 244 243 243 242 241 240 238 238 238 239 239 239 237 236 235 235 236 237 236 233 228 225 226 226 226 227 229 230
256 256 256 256 256 255 255 255 255 254 253 253 253 252 252 253 255 257 256 254 255 258 258 257 257 258 258 258 258 258 258 259 259 259 260 260 260 259 259 259 258 257 257 256 256 255 255 254 253 252 252 253 253 254 254 254 254 253 252 251 250 249 248 247 247 247 246 246 246 245 245 244 244 243 242 241 239 238 238 238 239 239 237 236 235 235 236 237 237 234 229 227 226 227 227 228 230
258 258 257 257 257 257 256 256 255 255 254 253 252 253 254 254 256 257 257 255 254 256 258 258 257 257 258 258 258 258 259 259 259 259 259 259 259 259 259 259 259 258 257 257 257 256 255 255 255 254 252 252 253 253 254 254 254 254 253 252 250 249 249 248 247 247 247 246 246 246 246 245 244 244 244 243 242 241 239 238 238 239 239 238 236 235 236 236 237 238 235 231 228 227 226 227 229
259 258 257 257 257 258 256 255 255 255 255 254 255 255 255 255 256 257 259 258 256 256 257 258 257 257 257 258 258 258 259 259 259 259 259 258 259 259 258 258 259 259 258 258 257 256 255 255 255 255 254 253 253 253 253 254 254 254 254 253 252 250 249 248 248 248 247 247 246 246 246 246 245 245 244 244 243 243 242 240 239 238 239 239 238 237 236 236 236 237 238 237 234 230 227 226 227
258 258 258 257 257 257 257 256 257 256 256 256 257 257 257 256 256 257 258 259 258 257 257 257 257 257 257 257 258 259 259 259 260 260 260 259 259 258 258 258 258 258 259 258 258 257 256 255 255 255 254 254 254 253 253 253 254 254 254 254 253 252 251 250 249 248 248 248 247 247 246 246 246 246 245 244 244 243 243 243 241 240 238 238 239 239 238 237 236 236 237 238 238 236 232 229 227
258 258 258 257 256 257 258 258 257 258 258 257 257 257 257 257 258 258 258 258 259 257 256 257 257 257 258 258 258 258 259 259 260 260 260 260 259 259 259 258 258 258 258 258 258 257 257 256 256 255 255 255 255 254 253 253 253 254 254 254 253 253 252 251 250 249 249 248 248 247 247 247 247 247 246 246 245 244 243 243 243 242 241 239 239 239 239 238 237 236 236 237 239 239 237 235 231
259 259 258 257 257 258 258 258 258 258 258 258 257 257 256 256 258 259 258 258 259 259 258 257 258 258 258 258 259 259 259 259 260 260 260 260 260 260 260 259 259 258 258 258 257 257 257 257 256 256 255 255 255 255 254 254 254 254 254 254 254 253 253 252 252 251 250 249 248 248 247 247 247 246 246 246 246 245 244 244 243 243 243 242 241 239 239 239 239 238 237 237 238 238 239 238 237
259 258 258 258 259 259 259 259 258 258 258 258 257 257 256 256 256 258 259 258 258 259 260 259 258 258 259 259 259 259 260 260 260 260 260 260 260 260 260 260 259 259 259 258 258 258 257 257 256 256 255 255 255 255 255 255 255 255 255 254 254 254 253 253 252 252 251 250 249 248 248 247 247 246 246 246 245 246 245 245 244 244 244 243 243 242 240 239 239 239 238 237 237 238 238 238 239
259 259 259 259 260 260 260 260 259 259 259 258 257 256 256 256 256 256 257 258 258 259 260 260 259 259 258 259 259 259 260 260 261 261 261 261 260 260 260 260 260 260 259 259 259 258 258 257 257 256 256 256 255 255 255 255 256 256 255 255 254 254 253 253 253 252 252 251 250 249 249 248 247 247 246 246 245 245 245 245 245 245 245 244 244 243 242 241 240 239 239 238 238 238 238 238 239
262 261 260 260 260 260 260 260 260 261 260 260 258 257 256 257 257 257 257 258 259 259 259 259 260 260 259 259 259 259 259 259 260 260 260 260 261 261 261 261 260 260 260 260 259 259 258 258 258 257 257 257 256 256 256 256 256 256 256 256 255 254 253 253 252 252 252 251 251 250 250 249 248 248 247 247 246 246 245 245 245 245 245 245 244 244 243 243 242 240 239 239 238 238 238 238 238
263 262 261 261 260 260 260 260 260 261 261 261 261 259 257 257 258 257 257 257 259 260 260 260 259 260 260 260 259 259 258 258 258 259 259 260 260 261 261 261 261 260 260 260 259 259 259 258 258 257 257 257 257 257 257 257 257 257 257 256 256 255 254 253 253 252 252 251 251 251 250 250 249 249 248 247 247 246 246 245 245 245 245 245 245 244 244 243 243 242 241 240 239 239 238 238 238